Location: Boitzum
(52.1496°N, 9.6943°E)
Time: 22:21:47
(UTC+00:00)

Helios 1A Rocket - Pass Details

Date: 13 January 2026
Orbit: 427 x 437 km, 98.3° (Epoch: 7 February)

Event Time Altitude Azimuth Distance (km) Brightness Sun altitude
Rises 05:34:28 0° 183° (S) 2,445 6.3 -16.1°
Reaches altitude 10° 05:36:35 10° 193° (SSW) 1,580 5.2 -15.8°
Maximum altitude 05:39:44 35° 261° (W) 744 3.0 -15.3°
Enters shadow 05:40:20 33° 286° (WNW) 791 3.0 -15.2°
